Regional Weather Roundup
Issued by NWS

Home | Current Version | Previous Version | Graphics & Text | Print | Product List | Glossary On
Versions: 1 2 3 4 5 6 7 8 9 10 11 12 13 14 15 16 17 18 19 20 21 22 23 24 25 26 27 28 29 30 31 32 33 34 35 36 37 38 39 40 41 42 43 44 45 46 47 48 49 50
974
ASUS44 KJAN 211010
RWRMS

MISSISSIPPI HOURLY WEATHER ROUNDUP
NATIONAL WEATHER SERVICE JACKSON MS
500 AM CDT MON JUL 21 2014

NOTE: "FAIR: INDICATES FEW OR NO CLOUDS BELOW 12,000 FEET WITH NO
SIGNIFICANT WEATHER AND/OR OBSTRUCTIONS TO VISIBILITY.

MSZ001>002-007>008-010>013-018>021-025>028-034>036-211100-
NORTHWEST MISSISSIPPI

CITY           SKY/WX    TMP DP  RH WIND       PRES   REMARKS
CLARKSDALE     FAIR      66  66 100 CALM      30.04R
CLEVELAND        N/A     66  66 100 NW5       30.02R FOG
GREENWOOD      CLEAR     65  63  93 CALM      30.02R FOG
GREENVILLE     FOG       64  64 100 CALM      30.02R VSB 1
GRENADA          N/A     64  64 100 CALM      30.03R
OLIVE BRANCH     N/A     64 N/A N/A CALM      30.04S VSB 1/2
OXFORD         FAIR      64  64 100 CALM      30.05R FOG
TUNICA         FOG       64  64 100 CALM      30.04R VSB 1/4
$$

MSZ003>006-009-014>017-022>024-029>033-037>039-211100-
NORTHEAST MISSISSIPPI

CITY           SKY/WX    TMP DP  RH WIND       PRES   REMARKS
BELMONT        FOG       64  64  99 CALM      30.04R VSB 3/4
COLUMBUS AFB   CLEAR     68  68 100 NE2       30.02R
CORINTH        FOG       64  63  94 CALM      30.04R VSB 1/4
GOLDN TRIANGLE MOCLDY    66  63  88 CALM      30.02R VSB 1/2
STARKVILLE     PTSUNNY   64  64 100 CALM      30.02R FOG
TUPELO         CLEAR     66  65  96 NE3       30.03R FOG
$$

MSZ040-058-211100-
CENTRAL MISSISSIPPI

CITY           SKY/WX    TMP DP  RH WIND       PRES   REMARKS
JACKSON INTL   MOCLDY    69  67  93 CALM      30.01R
JACKSON HAWKNS MOCLDY    70  66  88 NW5       30.02R
MERIDIAN KEY   PTCLDY    69  67  93 CALM      30.01R
MERIDIAN NAS   MOCLDY    69  67  93 CALM      30.02R
RAYMOND        CLOUDY    66  63  88 CALM      30.02R HAZE
VICKSBURG      CLOUDY    70  68  93 CALM      30.01R
$$

MSZ059>079-211100-
SOUTH MISSISSIPPI

CITY           SKY/WX    TMP DP  RH WIND       PRES   REMARKS
BROOKHAVEN     FAIR      66  66 100 CALM      30.03R FOG
COLUMBIA       FOG       70  70 100 CALM      29.99S VSB 1/4
HATTIESBURG    CLEAR     73  72  96 CALM      30.00R
MCCOMB         CLEAR     70  68  93 CALM      30.01S
NATCHEZ        PTCLDY    68  66  94 CALM      30.02S
PINE BELT      CLEAR     72  68  88 CALM      30.01R
$$

MSZ080>082-211100-
COASTAL MISSISSIPPI

CITY           SKY/WX    TMP DP  RH WIND       PRES   REMARKS
BILOXI         MOCLDY    77  76  97 VRB1      29.98R
PASCAGOULA     PTCLDY    75  74  96 CALM      29.98R
GULFPORT       MOCLDY    78  75  90 NW3       29.97S
$$



USA.gov is the U.S. government's official web portal to all federal, state and local government web resources and services.